User: anonymous   Login
Location: Wildlife_Club
(35.6000°N, 81.4330°W)
Time: 14:58:36
(UTC-05:00)
Language:

Cosmos 1782 - Orbit

View from above orbital plane
View from above orbital plane
View from above satellite
View from above satellite

Ground track
Ground track

The orbit data is extracted from the following two-line orbital elements,

1 16986U 86074A   17059.91536876 +.00000263 +00000-0 +15826-4 0  9999
2 16986 082.5046 226.5357 0011041 002.5454 357.5827 15.06446838633378
Epoch (UTC): 28 February 2017 21:58:07
Eccentricity: 0.0011041
inclination: 82.5046°
perigee height: 539 km
apogee height: 555 km
right ascension of ascending node: 226.5357°
argument of perigee: 2.5454°
revolutions per day: 15.06446838
mean anomaly at epoch: 357.5827°
orbit number at epoch: 63337

The dashed part of the orbit path shows where the satellite is in the earth's shadow,  

DLR